Oak Ridge, TN

3:40 AM EST on November 18, 2019 (GMT -0500)
Oak Ridge

Weather History for KOQT - September, 2019

Change the Weather History Date:

Tuesday, September 10, 2019

  Actual Average (WUND) Record (WUND)
Temperature  
Mean Temperature 81 °F -  
Max Temperature 96 °F - - (-1)
Min Temperature 66 °F - - (-1)
Cooling Degree Days 16    
Growing Degree Days 31 (Base 50)    
Moisture  
Dew Point 66 °F    
Average Humidity 65    
Maximum Humidity 90    
Minimum Humidity 33    
Precipitation  
Precipitation 0.00 in - - ()
Sea Level Pressure  
Sea Level Pressure 30.19 in    
Wind  
Wind Speed 1 mph ()    
Max Wind Speed 5 mph    
Max Gust Speed -    
Visibility 10.0 miles    
Events      
Averages and records for this station are not official NWS values.
T = Trace of Precipitation, MM = Missing Value Source: Averaged Metar Reports

Daily Weather History Graph

Daily Weather History Graph

Search for Another Location

Airport or City:

Astronomy

Sep. 10, 2019 Rise Set
Actual Time 7:15 AM EDT 7:51 PM EDT
Civil Twilight 6:49 AM EDT 8:17 PM EDT
Nautical Twilight 6:19 AM EDT 8:48 PM EDT
Astronomical Twilight 5:47 AM EDT 9:19 PM EDT
Moon 6:20 PM EDT (9/10) 3:48 AM EDT (9/10)
Length of Visible Light 13h 28m
Length of Day
12h 36m
Waxing Gibbous, 89% of the Moon is Illuminated
Sep 10
Waxing Gibbous
Sep 14
Full
Sep 21
Last Quarter
Sep 28
New
Oct 5
First Quarter

Hourly Weather History & Observations

Time (EDT) Temp. Heat Index Dew Point Humidity Pressure Visibility Wind Dir Wind Speed Gust Speed Precip Events Conditions
12:53 AM 71.1 °F - 66.0 °F 84% 30.15 in 10.0 mi Calm Calm - N/A   Clear
1:53 AM 70.0 °F - 64.9 °F 84% 30.16 in 10.0 mi Calm Calm - N/A   Clear
2:53 AM 69.1 °F - 64.9 °F 87% 30.16 in 10.0 mi Calm Calm - N/A   Clear
3:53 AM 69.1 °F - 64.9 °F 87% 30.16 in 10.0 mi Calm Calm - N/A   Clear
4:53 AM 68.0 °F - 64.9 °F 90% 30.17 in 10.0 mi Calm Calm - N/A   Clear
5:53 AM 68.0 °F - 64.9 °F 90% 30.18 in 10.0 mi Calm Calm - N/A   Clear
6:53 AM 66.9 °F - 64.0 °F 90% 30.21 in 10.0 mi Calm Calm - N/A   Clear
7:53 AM 68.0 °F - 64.0 °F 87% 30.22 in 10.0 mi Calm Calm - N/A   Clear
8:53 AM 71.1 °F - 66.0 °F 84% 30.24 in 10.0 mi Calm Calm - N/A   Clear
9:53 AM 77.0 °F - 66.9 °F 71% 30.24 in 10.0 mi Variable 3.5 mph - N/A   Clear
10:53 AM 82.0 °F 84.9 °F 68.0 °F 62% 30.23 in 10.0 mi Calm Calm - N/A   Clear
12:53 PM 90.0 °F 93.6 °F 68.0 °F 48% 30.21 in 10.0 mi Calm Calm - N/A   Clear
1:53 PM 93.0 °F 97.4 °F 68.0 °F 44% 30.21 in 10.0 mi Variable 4.6 mph - N/A   Clear
2:53 PM 93.9 °F 99.1 °F 69.1 °F 44% 30.19 in 10.0 mi Variable 3.5 mph - N/A   Clear
3:53 PM 93.9 °F 97.0 °F 66.0 °F 40% 30.17 in 10.0 mi South 4.6 mph - N/A   Clear
4:53 PM 95.0 °F 97.4 °F 64.9 °F 37% 30.16 in 10.0 mi Calm Calm - N/A   Clear
5:53 PM 96.1 °F 98.3 °F 64.0 °F 35% 30.14 in 10.0 mi Calm Calm - N/A   Clear
6:53 PM 93.9 °F 94.0 °F 61.0 °F 33% 30.15 in 10.0 mi SSW 4.6 mph - N/A   Partly Cloudy
7:53 PM 88.0 °F 90.3 °F 66.0 °F 48% 30.16 in 10.0 mi SW 3.5 mph - N/A   Clear
8:53 PM 86.0 °F 88.2 °F 66.0 °F 51% 30.18 in 10.0 mi Calm Calm - N/A   Clear
9:53 PM 81.0 °F 83.8 °F 68.0 °F 65% 30.20 in 10.0 mi Calm Calm - N/A   Clear
10:53 PM 80.1 °F 82.3 °F 66.9 °F 64% 30.22 in 10.0 mi Calm Calm - N/A   Clear
11:53 PM 79.0 °F - 66.9 °F 66% 30.22 in 10.0 mi Calm Calm - N/A   Clear